Regional Weather Roundup
Issued by NWS

Home | Current Version | Previous Version | Text Only | Print | Product List | Glossary Off
Versions: 1 2 3 4 5 6 7 8 9 10 11 12 13 14 15 16 17 18 19 20 21 22 23 24 25 26 27 28 29 30 31 32 33 34 35 36 37 38 39 40 41 42 43 44 45 46 47 48 49 50

000
ASUS43 KLOT 192308
RWRIL

ILLINOIS REGIONAL WEATHER ROUNDUP
NATIONAL WEATHER SERVICE CHICAGO/ROMEOVILLE IL
500 PM CST MON FEB 19 2018

NOTE: "FAIR" INDICATES FEW OR NO CLOUDS BELOW 12,000 FEET WITH NO
SIGNIFICANT WEATHER AND/OR OBSTRUCTIONS TO VISIBILITY.

* THESE STATIONS ARE NOT UNDER NWS QUALITY CONTROL. THEY ALSO MAY NOT
  REPORT WEATHER SUCH AS PRECIPITATION OR FOG.

ILZ001-002-007-009-015-016-024-200000-
NORTHWEST ILLINOIS

CITY           SKY/WX    TMP DP  RH WIND       PRES   REMARKS
MOLINE         CLOUDY    62  57  83 S17G28    29.69R
STERLING*      MOCLDY    54  52  93 VRB6      29.74R
SAVANNA*       DRZL/FOG  48  48  99 S13       29.70S VSB 1/4
$$

ILZ003-004-008-010-011-017-018-200000-
NORTH CENTRAL ILLINOIS

CITY           SKY/WX    TMP DP  RH WIND       PRES   REMARKS
ROCKFORD       LGT RAIN  45  45 100 S8        29.76S VSB 1/4
FREEPORT*      RAIN      46  46 100 S15       29.72F VSB<1/4
ROCHELLE*      LGT RAIN  44  44 100 S14       29.77R VSB<1/4
DE KALB*       LGT RAIN  46  45  99 S16       29.78S VSB<1/4
PERU*          CLOUDY    55  53  92 S20       29.77S
$$

ILZ005-006-012>014-019>023-200000-
NORTHEAST ILLINOIS

CITY           SKY/WX    TMP DP  RH WIND       PRES   REMARKS
CHICAGO-OHARE  CLOUDY    58  54  86 SW20G26   29.79R
CHICAGO-MIDWAY LGT RAIN  57  55  93 S14G24    29.81R
AURORA         CLOUDY    50  50 100 S12       29.79R FOG
LANSING*       LGT RAIN  54  54 100 S17G23    29.84S
JOLIET*        LGT RAIN  58  57  97 S16G22    29.81S
WAUKEGAN       FOG       38  38 100 N3        29.78S VSB 1/4
DUPAGE AIRPORT CLOUDY    52  52 100 S14       29.79R FOG
KANKAKEE*      LGT RAIN  57  56  97 S17G26    29.86F
WHEELING       CLOUDY    58  55  90 S18G26    29.80R
MORRIS*        LGT RAIN  54  53  99 S18       29.80R
ROMEOVILLE*    LGT RAIN  55  55  99 SW21G28   29.81S
NORTHERLY ISL    N/A     57  53  86 S20         N/A
$$

LMZ740>746-200000-
SOUTHERN LAKE MICHIGAN

STATION/POSITION SKY/WX   TEMP    WIND        PRES    VSBY  WAVE
                          AIR SEA DIR/SP/G                  HT/PER
                          (F)     (DEG/KT/KT) (MB)    (MI)  (FT/S)
HARRISON CRIB              57     200/ 28/ 30   N/A
BURNHAM HARBOR             57     180/ 15/ 20   N/A
CALUMET HARBOR             56     190/ 10/ 18 1009.3S
BURNS HARBOR               55     200/ 20/ 25 1011.2R
MICHIGAN CITY              57     180/ 19/ 23   N/A
$$

ILZ025>027-034>036-040-047-049-050-058-095>099-200000-
WEST-CENTRAL ILLINOIS

CITY           SKY/WX    TMP DP  RH WIND       PRES   REMARKS
QUINCY         CLOUDY    60  59  96 S14G22    29.76S
GALESBURG*     CLOUDY    59  58  97 S20G25    29.76R
MACOMB*        CLOUDY    59  58  96 S13       29.79R
JACKSONVILLE*  CLOUDY    59  57  92 S15G23    29.82S
PITTSFIELD*    CLOUDY    61  59  95 S13       29.80S
$$

ILZ028>032-037-038-041>044-048-051>054-059>061-200000-
CENTRAL ILLINOIS

CITY           SKY/WX    TMP DP  RH WIND       PRES   REMARKS
PONTIAC        LGT RAIN  58  58  99 S20G25    29.85R
BLOOMINGTON    LGT RAIN  58  57  97 S25       29.85R
DECATUR        LGT RAIN  59  59 100 S14G24    29.89R
PEORIA         CLOUDY    59  57  93 S22G31    29.79S
LACON*         RAIN      59  58  96 S16G28    29.77S
LINCOLN*       LGT RAIN  60  60  99 S15       29.86S
SPRINGFIELD    LGT RAIN  61  60  97 S15       29.85R FOG
TAYLORVILLE    CLOUDY    60  58  93 S16       29.88S
$$

ILZ033-039-045-046-055>057-062-063-200000-
EAST-CENTRAL ILLINOIS

CITY           SKY/WX    TMP DP  RH WIND       PRES   REMARKS
CHAMPAIGN      LGT RAIN  59  59 100 S21       29.90S FOG
DANVILLE*      LGT RAIN  59  58  96 S17G25    29.89F
RANTOUL*       DRIZZLE   61  60  96 S20G26    29.89R
MATTOON        LGT RAIN  59  57  93 S12       29.92F
PARIS*         LGT RAIN  59  58  96 S15       29.96S
$$

ILZ079-100>102-200000-
SOUTHWEST ILLINOIS

CITY           SKY/WX    TMP DP  RH WIND       PRES   REMARKS
ALTON          CLOUDY    61  59  94 S14       29.87F
BELLEVILLE     CLOUDY    67  57  71 S13       29.86F
CAHOKIA*       CLOUDY    68  57  68 S8G23     29.85F
SPARTA*        MOCLDY    68  59  72 S13G25    29.92S
$$

ILZ064>066-069>071-074>076-080>082-084>086-088>090-092>094-200000-
SOUTH-CENTRAL ILLINOIS

CITY           SKY/WX    TMP DP  RH WIND       PRES   REMARKS
CARBONDALE     CLOUDY    68  60  75 S21G38    29.96R
CAIRO*         CLOUDY    70  60  71 S9        30.00R
EFFINGHAM*     CLOUDY    63  59  88 SE8       29.96S
MARION         MOCLDY    68  61  77 SW17G25   29.98R
MT. VERNON     MOCLDY    67  59  75 S20       29.96R
CENTRALIA*     CLOUDY    67  59  74 S23G30    29.92S
SALEM*         CLOUDY    67  57  69 S18       29.93S
METROPOLIS*    MOCLDY    71  58  63 S8G17     30.02R
$$

ILZ067-068-072-073-078-083-087-091-200000-
SOUTHEAST ILLINOIS

CITY           SKY/WX    TMP DP  RH WIND       PRES   REMARKS
LAWRENCEVILLE  CLOUDY    67  58  72 SW8       29.98R
FLORA*         CLOUDY    68  59  73 S16G22    29.95S
FAIRFIELD*     FAIR      68  58  70 S8        29.96S
HARRISBURG*    FAIR      72  58  62 S21       29.99R
ROBINSON*      CLOUDY    65  58  77 SW8       29.98R
CARMI*         MOCLDY    68  58  68 S12       29.98R
$$

ABBREVIATIONS USED IN REMARKS
   TC - TEMPERATURE IN CELSIUS
  WCI - WIND CHILL INDEX
   HX - HEAT INDEX
  VSB - VISIBILITY
$$




USA.gov is the U.S. government's official web portal to all federal, state and local government web resources and services.